Location: Finnegan
(51.1333°N, 112.0833°W)
Time: 04:18:16
(UTC+00:00)

Tiangong - Pass Details

Date: 03 December 2022
Orbit: 382 x 386 km, 41.5° (Epoch: 05 February)

Event Time Altitude Azimuth Distance (km) Brightness Sun altitude
Rises 02:02:36 0° 234° (SW) 2,249 2.7 -23.9°
Reaches altitude 10° 02:05:21 10° 207° (SSW) 1,399 1.1 -24.3°
Enters shadow 02:05:47 12° 200° (SSW) 1,312 0.8 -24.4°
